ONEWEB-0196, 48218

Orbit data source: Space-Track

ONEWEB-0196, 48218 is a payload satellite owned by One Web (NAA) (UK) in LEO that was launched on Sun, 25 Apr 2021 UTC via a SOYUZ-2-1B launch vehicle from the Vostochny Cosmodrome (VOSTO). Payload-class satellites include a variety of spacecraft equipped with specific instruments for various scientific and technological missions. These include communications satellites like Starlink; space stations such as the ISS; scientific satellites like the Hubble; Earth observation satellites from companies like Planet Labs, Umbra, and HawkEye 360; GPS; miniature CubeSats for education and research; and military/defense satellites.

Loading next visibility...
Identifier
48218, 2021-031J
Orbit
LEO
Country
Flag of UKUK
Related business
Manufacturer
One Web
Mission
Operational Commercial Communications
Bus & Motor
ARROW, Unknown motor
Mass
148 kg wet, ~140 kg dry
Launch date (UTC)
2021-04-25 (5 years ago)
Launch vehicle
SOYUZ-2-1B
Launch site
Vostochny Cosmodrome (VOSTO)
Object type
Payload
Rocket body
Debris
Shape & HBR
Trap Box + 2 Pan, 6.7 m
Radar Cross Section
3.464 m², Large (>1 m²)

Expand to show TLE details & history
Last TLE update: 21 hours ago

TLE from 21 hours ago
0 ONEWEB-0196
1 48218U 21031J   25306.30991823  .00000266  00000-0  68370-3 0  9992
2 48218  87.9009 334.9093 0002003  91.9095 268.2264 13.14505074218424
Epoch: 2025-11-02T07:26Z
TLE epoch observation values (Epoch: 2025-11-02T07:26:16.935Z)
Latitude
-0.00001°
Longitude
-178.48875°
Altitude
1,208.723 km
Speed
7.25 km/s
True Right ascension
22h 19m 38s
True Declination
0° 00' 00"
Sunlit
Object was in daylight at epoch
Visualization orbit readout
Latitude
Unknown
Longitude
Unknown
Altitude
Unknown
Speed
Unknown
Apparent Right ascension
Unknown
Apparent Declination
Unknown
Sunlit
N/A
Visualization observer readout
Local Sidereal Time
00:04:58
Azimuth
Unknown
Elevation
Unknown
Doppler factor
Unknown
Orbital elements
Apogee altitude
1,204.414 km
Perigee altitude
1,201.377 km
Semi-major axis
7,581.032 km
Eccentricity
0.0002
Inclination
87.9009°
RAAN
334.9093°
Arg. of periapsis
91.9095°
True anomaly
268.20346°
Mean anomaly
268.2264°
Eccentric anomaly
268.21493°
Mean motion
3.28814 °/min
Orbital period
109.48 mins
BSTAR
0.0006837
Loading maneuver chart data...
Computing Atmospheric mass density...
Loading historical data...
Loading historical data...
Loading historical data...
Loading historical data...
Loading historical data...
Loading historical data...
Loading historical data...

Documentation

Showing up to 5 results
|